Location: Briis
(48.6240°N, 2.1211°E)
Time: 05:36:35
(UTC+00:00)

Cosmos 841 Rocket - Pass Details

Date: 25 September 2020
Orbit: 746 x 773 km, 74.0° (Epoch: 18 October)

Event Time Altitude Azimuth Distance (km) Brightness Sun altitude
Exits shadow 04:58:39 - 235° (SW) 2,595 5.7 -8.1°
Reaches altitude 10° 04:59:30 10° 239° (WSW) 2,302 5.4 -8.0°
Maximum altitude 05:04:14 34° 304° (NW) 1,257 4.3 -7.2°
Drops below altitude 10° 05:09:02 10° 9° (N) 2,327 6.2 -6.4°
Sets 05:11:39 0° 19° (NNE) 3,259 7.1 -6.0°
